Ozark, AL

6:59 PM CDT on May 27, 2017 (GMT -0500)
Cairns Army Air Field

Weather History for KOZR - May, 2014

Change the Weather History Date:

Tuesday, May 6, 2014

  Actual Average Record
Temperature  
Mean Temperature 72 °F -  
Max Temperature 85 °F 80 °F 89 °F (2000)
Min Temperature 59 °F 58 °F 44 °F (2013)
Cooling Degree Days 7    
Growing Degree Days 22 (Base 50)    
Moisture  
Dew Point 57 °F    
Average Humidity 61    
Maximum Humidity 100    
Minimum Humidity 33    
Precipitation  
Precipitation 0.00 in - - ()
Sea Level Pressure  
Sea Level Pressure 30.01 in    
Wind  
Wind Speed 4 mph (SSW)    
Max Wind Speed 9 mph    
Max Gust Speed -    
Visibility 10 miles    
Events      
Averages and records for this station are not official NWS values.
T = Trace of Precipitation, MM = Missing Value Source: NWS Daily Summary

Daily Weather History Graph

Daily Weather History Graph

Search for Another Location

Airport or City:

Trip Planner

Search our weather history database for the weather conditions in past years. The results will help you decide how hot, cold, wet, or windy it might be!

Date:

Astronomy

May. 06, 2014 Rise Set
Actual Time 5:53 AM CDT 7:25 PM CDT
Civil Twilight 5:27 AM CDT 7:51 PM CDT
Nautical Twilight 4:56 AM CDT 8:23 PM CDT
Astronomical Twilight 4:23 AM CDT 8:55 PM CDT
Moon 12:04 PM CDT (5/6) 12:48 AM CDT (5/6)
Length of Visible Light 14h 24m
Length of Day
13h 32m
Waxing Crescent, 46% of the Moon is Illuminated
May 6
Waxing Crescent
May 6
First Quarter
May 14
Full
May 21
Last Quarter
May 28
New

Hourly Weather History & Observations

Time (CDT) Temp. Heat Index Dew Point Humidity Pressure Visibility Wind Dir Wind Speed Gust Speed Precip Events Conditions
12:58 AM 62.2 °F - 57.6 °F 85% 30.00 in 10.0 mi SW 3.5 mph - N/A   Clear
1:58 AM 61.0 °F - 57.9 °F 90% 29.98 in 10.0 mi Variable 2.3 mph - N/A   Clear
6:58 AM 59.0 °F - 59.0 °F 100% 30.04 in 5.0 mi SE 2.3 mph - N/A   Partly Cloudy
7:58 AM 63.7 °F - 62.6 °F 96% 30.05 in 10.0 mi Calm Calm - N/A   Clear
8:58 AM 69.8 °F - 62.2 °F 77% 30.06 in 10.0 mi WSW 6.9 mph - N/A   Clear
9:58 AM 75.2 °F - 58.1 °F 55% 30.06 in 10.0 mi WSW 5.8 mph - N/A   Clear
10:58 AM 76.8 °F - 58.3 °F 53% 30.05 in 10.0 mi Calm Calm - N/A   Clear
11:58 AM 79.3 °F - 56.1 °F 45% 30.04 in 10.0 mi Variable 3.5 mph - N/A   Clear
12:58 PM 81.7 °F 81.0 °F 53.4 °F 38% 30.03 in 10.0 mi South 8.1 mph - N/A   Clear
1:58 PM 83.1 °F 82.3 °F 55.8 °F 39% 30.00 in 10.0 mi Variable 4.6 mph - N/A   Clear
3:58 PM 85.5 °F 83.7 °F 53.2 °F 33% 29.97 in 10.0 mi SW 6.9 mph - N/A   Clear
4:58 PM 85.5 °F 84.0 °F 54.9 °F 35% 29.97 in 10.0 mi SSW 9.2 mph - N/A   Clear
5:58 PM 84.2 °F 82.9 °F 54.7 °F 36% 29.96 in 10.0 mi South 5.8 mph - N/A   Clear
6:58 PM 80.6 °F 80.7 °F 57.0 °F 44% 29.96 in 10.0 mi South 8.1 mph - N/A   Clear
7:58 PM 74.7 °F - 55.0 °F 50% 29.99 in 10.0 mi South 9.2 mph - N/A   Clear
8:58 PM 70.2 °F - 55.2 °F 59% 30.00 in 10.0 mi South 6.9 mph - N/A   Clear
9:58 PM 67.8 °F - 55.6 °F 65% 30.01 in 10.0 mi South 5.8 mph - N/A   Clear
10:58 PM 65.5 °F - 56.8 °F 74% 30.03 in 10.0 mi SSW 5.8 mph - N/A   Clear
11:58 PM 63.9 °F - 57.7 °F 80% 30.03 in 10.0 mi SSW 4.6 mph - N/A   Clear